TimeCST,TemperatureF,Dew PointF,Humidity,Sea Level PressureIn,VisibilityMPH,Wind Direction,Wind SpeedMPH,Gust SpeedMPH,PrecipitationIn,Events,Conditions,WindDirDegrees,DateUTC
12:15 AM,-22.2,-28.3,73,29.96,10.0,West,11.5,-,N/A,,Clear,270,2014-01-07 06:15:00
12:35 AM,-22.4,-28.5,73,29.95,10.0,West,12.7,17.3,N/A,,Clear,270,2014-01-07 06:35:00
12:55 AM,-22.4,-28.5,73,29.95,10.0,West,10.4,-,N/A,,Clear,270,2014-01-07 06:55:00
1:15 AM,-22.9,-28.5,75,29.95,10.0,West,10.4,-,N/A,,Clear,270,2014-01-07 07:15:00
1:35 AM,-22.9,-28.5,75,29.96,10.0,West,11.5,-,N/A,,Clear,270,2014-01-07 07:35:00
1:55 AM,-23.1,-28.5,76,29.98,10.0,West,10.4,-,N/A,,Clear,260,2014-01-07 07:55:00
2:15 AM,-23.3,-29.2,74,29.98,10.0,West,10.4,-,N/A,,Clear,270,2014-01-07 08:15:00
2:35 AM,-23.4,-29.2,74,29.98,10.0,West,10.4,-,N/A,,Clear,270,2014-01-07 08:35:00
2:55 AM,-23.8,-29.6,74,29.98,10.0,West,10.4,16.1,N/A,,Clear,270,2014-01-07 08:55:00
3:15 AM,-24.0,-29.4,76,29.98,10.0,West,9.2,-,N/A,,Clear,270,2014-01-07 09:15:00
3:35 AM,-24.3,-29.6,76,29.98,10.0,West,9.2,-,N/A,,Clear,270,2014-01-07 09:35:00
3:55 AM,-24.3,-29.6,76,29.98,10.0,West,10.4,16.1,N/A,,Clear,270,2014-01-07 09:55:00
4:15 AM,-24.5,-29.9,76,29.97,10.0,West,8.1,-,N/A,,Clear,280,2014-01-07 10:15:00
4:35 AM,-24.0,-29.4,76,29.95,10.0,West,10.4,-,N/A,,Clear,280,2014-01-07 10:35:00
4:55 AM,-24.2,-29.6,76,29.95,10.0,West,9.2,-,N/A,,Clear,270,2014-01-07 10:55:00
5:15 AM,-24.0,-29.2,76,29.95,10.0,West,8.1,-,N/A,,Clear,260,2014-01-07 11:15:00
5:35 AM,-24.2,-29.6,76,29.95,10.0,West,8.1,-,N/A,,Clear,260,2014-01-07 11:35:00
5:55 AM,-24.0,-29.4,76,29.96,10.0,WSW,6.9,-,N/A,,Clear,250,2014-01-07 11:55:00
6:15 AM,-23.8,-29.2,76,29.97,10.0,West,10.4,-,N/A,,Clear,260,2014-01-07 12:15:00
6:35 AM,-23.4,-28.7,77,29.96,10.0,West,10.4,-,N/A,,Clear,270,2014-01-07 12:35:00
6:55 AM,-23.3,-28.5,77,29.97,10.0,West,9.2,-,N/A,,Clear,270,2014-01-07 12:55:00
7:15 AM,-23.4,-28.5,77,29.98,10.0,West,8.1,-,N/A,,Clear,270,2014-01-07 13:15:00
7:35 AM,-23.4,-28.5,77,29.98,10.0,West,9.2,-,N/A,,Clear,270,2014-01-07 13:35:00
7:55 AM,-23.1,-28.3,77,29.98,10.0,West,9.2,-,N/A,,Clear,280,2014-01-07 13:55:00
8:15 AM,-22.0,-27.6,75,29.98,10.0,WNW,9.2,-,N/A,,Clear,290,2014-01-07 14:15:00
8:35 AM,-20.6,-26.3,75,30.00,10.0,West,10.4,-,N/A,,Mostly Cloudy,280,2014-01-07 14:35:00
8:55 AM,-19.3,-25.1,75,30.01,10.0,West,11.5,17.3,N/A,,Overcast,270,2014-01-07 14:55:00
9:15 AM,-18.4,-24.0,76,30.02,5.0,West,8.1,-,N/A,,Haze,270,2014-01-07 15:15:00
9:35 AM,-17.5,-23.1,76,30.02,7.0,West,6.9,-,N/A,,Overcast,270,2014-01-07 15:35:00
9:55 AM,-16.6,-22.2,76,30.03,7.0,West,10.4,16.1,N/A,,Overcast,270,2014-01-07 15:55:00
10:15 AM,-15.7,-21.1,77,30.03,5.0,West,8.1,16.1,N/A,,Haze,260,2014-01-07 16:15:00
10:35 AM,-14.3,-20.2,75,30.03,4.0,West,8.1,-,N/A,,Haze,270,2014-01-07 16:35:00
10:55 AM,-13.2,-19.3,74,30.03,5.0,West,8.1,-,N/A,,Haze,260,2014-01-07 16:55:00
11:15 AM,-12.1,-18.4,74,30.03,5.0,West,9.2,-,N/A,,Haze,260,2014-01-07 17:15:00
11:35 AM,-10.8,-18.4,69,30.02,7.0,WSW,6.9,-,N/A,,Mostly Cloudy,250,2014-01-07 17:35:00
11:55 AM,-10.5,-18.4,68,30.01,10.0,WSW,9.2,-,N/A,,Scattered Clouds,240,2014-01-07 17:55:00
12:15 PM,-10.5,-18.6,67,30.01,10.0,WSW,9.2,-,N/A,,Clear,240,2014-01-07 18:15:00
12:35 PM,-10.5,-18.8,67,30.00,10.0,SW,10.4,-,N/A,,Clear,230,2014-01-07 18:35:00
12:55 PM,-9.6,-18.4,65,29.99,10.0,SW,8.1,-,N/A,,Clear,230,2014-01-07 18:55:00
1:15 PM,-8.7,-18.2,63,29.99,10.0,SW,11.5,-,N/A,,Clear,230,2014-01-07 19:15:00
1:35 PM,-8.3,-17.9,63,30.00,10.0,WSW,10.4,-,N/A,,Clear,240,2014-01-07 19:35:00
1:55 PM,-7.8,-17.5,63,30.00,10.0,SW,9.2,-,N/A,,Clear,230,2014-01-07 19:55:00
2:15 PM,-7.6,-17.1,63,30.00,10.0,WSW,9.2,-,N/A,,Clear,240,2014-01-07 20:15:00
2:35 PM,-6.0,-16.4,61,30.01,10.0,WSW,8.1,-,N/A,,Clear,250,2014-01-07 20:35:00
2:55 PM,-6.0,-16.2,61,30.01,10.0,West,10.4,-,N/A,,Clear,270,2014-01-07 20:55:00
3:15 PM,-6.2,-16.4,61,30.01,10.0,WSW,8.1,-,N/A,,Clear,250,2014-01-07 21:15:00
3:35 PM,-6.3,-16.4,62,30.02,10.0,West,9.2,-,N/A,,Clear,270,2014-01-07 21:35:00
3:55 PM,-6.5,-16.4,62,30.02,10.0,West,9.2,-,N/A,,Clear,260,2014-01-07 21:55:00
4:15 PM,-7.6,-16.8,64,30.03,10.0,West,6.9,-,N/A,,Clear,260,2014-01-07 22:15:00
4:35 PM,-8.0,-17.0,65,30.03,10.0,WSW,8.1,-,N/A,,Clear,250,2014-01-07 22:35:00
4:55 PM,-7.6,-16.1,67,30.04,10.0,West,8.1,-,N/A,,Clear,260,2014-01-07 22:55:00
5:15 PM,-7.6,-16.1,67,30.05,10.0,West,5.8,-,N/A,,Clear,270,2014-01-07 23:15:00
5:35 PM,-7.4,-15.9,67,30.05,10.0,West,4.6,-,N/A,,Clear,270,2014-01-07 23:35:00
5:55 PM,-7.1,-15.7,66,30.06,10.0,West,4.6,-,N/A,,Clear,270,2014-01-07 23:55:00
6:15 PM,-6.7,-15.3,66,30.07,10.0,West,5.8,-,N/A,,Clear,260,2014-01-08 00:15:00
6:35 PM,-6.3,-14.8,67,30.07,10.0,West,5.8,-,N/A,,Clear,280,2014-01-08 00:35:00
6:55 PM,-6.0,-14.8,66,30.07,10.0,West,5.8,-,N/A,,Clear,260,2014-01-08 00:55:00
7:15 PM,-5.8,-14.4,66,30.08,10.0,West,6.9,-,N/A,,Clear,280,2014-01-08 01:15:00
7:35 PM,-5.8,-14.6,66,30.08,10.0,West,5.8,-,N/A,,Clear,270,2014-01-08 01:35:00
7:55 PM,-6.2,-14.8,66,30.08,10.0,West,3.5,-,N/A,,Clear,260,2014-01-08 01:55:00
8:15 PM,-6.3,-14.8,67,30.09,10.0,West,3.5,-,N/A,,Clear,260,2014-01-08 02:15:00
8:35 PM,-6.7,-14.8,68,30.10,10.0,WSW,3.5,-,N/A,,Clear,250,2014-01-08 02:35:00
8:55 PM,-7.1,-15.2,68,30.11,10.0,WSW,4.6,-,N/A,,Clear,240,2014-01-08 02:55:00
9:15 PM,-7.2,-15.3,68,30.11,10.0,WSW,4.6,-,N/A,,Clear,240,2014-01-08 03:15:00
9:35 PM,-7.6,-15.3,69,30.11,10.0,Calm,Calm,-,N/A,,Clear,0,2014-01-08 03:35:00
9:55 PM,-7.6,-15.0,70,30.12,10.0,WSW,3.5,-,N/A,,Clear,240,2014-01-08 03:55:00
10:15 PM,-8.3,-15.3,71,30.12,10.0,WSW,3.5,-,N/A,,Clear,240,2014-01-08 04:15:00
10:35 PM,-8.7,-15.7,71,30.13,10.0,WSW,4.6,-,N/A,,Clear,240,2014-01-08 04:35:00
10:55 PM,-9.0,-15.9,72,30.13,10.0,SW,4.6,-,N/A,,Clear,230,2014-01-08 04:55:00
11:15 PM,-9.6,-15.9,74,30.13,10.0,WSW,5.8,-,N/A,,Clear,250,2014-01-08 05:15:00
11:35 PM,-9.4,-15.7,74,30.13,10.0,WSW,4.6,-,N/A,,Clear,250,2014-01-08 05:35:00
11:55 PM,-9.8,-15.7,75,30.13,10.0,WSW,4.6,-,N/A,,Clear,250,2014-01-08 05:55:00